This is the latest recevied weather packets stored in our database for station/object N3OZD-10. If no packets are shown the sender has not sent any weather packets the latest 10 day(s).
| Time | Temp. | Humidity | Pressure | Rain* | Wind** | Luminosity | Snow |
|---|---|---|---|---|---|---|---|
| 1778080346 | 16.11° C | 95% | 1009.4 hPa | 1.78 mm | - | - | - |
| 1778080042 | 16.11° C | 95% | 1009.4 hPa | 1.78 mm | - | - | - |
| 1778079751 | 16.11° C | 95% | 1009.4 hPa | 1.78 mm | - | - | - |
| 1778079442 | 16.11° C | 95% | 1009.4 hPa | 1.78 mm | - | - | - |
| 1778079142 | 16.11° C | 95% | 1009.5 hPa | 2.03 mm | - | - | - |
| 1778078845 | 16.11° C | 95% | 1009.5 hPa | 2.03 mm | - | - | - |
| 1778078542 | 16.11° C | 95% | 1009.4 hPa | 2.03 mm | - | - | - |
| 1778078243 | 16.11° C | 95% | 1009.3 hPa | 2.29 mm | - | - | - |
| 1778077945 | 16.11° C | 94% | 1009.1 hPa | 2.29 mm | - | - | - |
| 1778077643 | 16.11° C | 94% | 1009.1 hPa | 2.29 mm | - | - | - |
| 1778077342 | 16.11° C | 93% | 1009.2 hPa | 1.78 mm | - | - | - |
| 1778077042 | 16.67° C | 93% | 1009.2 hPa | 1.78 mm | - | - | - |
| 1778076742 | 16.11° C | 92% | 1009.3 hPa | 2.03 mm | - | - | - |
| 1778076442 | 16.67° C | 91% | 1009.4 hPa | 1.78 mm | - | - | - |
| 1778076142 | 16.11° C | 90% | 1009.5 hPa | 1.78 mm | - | - | - |
| 1778075842 | 16.67° C | 89% | 1009.7 hPa | 1.52 mm | - | - | - |
| 1778075546 | 16.67° C | 88% | 1009.8 hPa | 1.02 mm | - | - | - |
| 1778075245 | 16.67° C | 87% | 1009.7 hPa | 1.02 mm | - | - | - |
| 1778074942 | 16.67° C | 85% | 1009.6 hPa | 0.76 mm | - | - | - |
| 1778074642 | 17.22° C | 85% | 1009.6 hPa | 0.51 mm | - | - | - |
| 1778074042 | 17.22° C | 83% | 1009.6 hPa | 0.25 mm | - | - | - |
| 1778073742 | 17.22° C | 82% | 1009.6 hPa | 0.25 mm | - | - | - |
| 1778073442 | 17.78° C | 80% | 1009.6 hPa | 0.25 mm | - | - | - |
| 1778073142 | 17.78° C | 79% | 1009.4 hPa | 0 mm | - | - | - |
| 1778072842 | 17.78° C | 79% | 1009.2 hPa | 0 mm | - | - | - |
* Rain latest hour (hover to see other rain measurements)
** Current wind speed in m/s (hover to see current wind gust speed)